GW3385 Weather Reports


time (UTC)temp
C
wind
direction
speed
KPH
gust
KPH
rain 1hr
cm
rain 24hr
cm
rain mn
cm
humidity
%
barometer
mb
20260506201556 18 229 9.7 16.1 0.00 0.00 0.00 64 1016.3
20260506201054 18 203 6.4 16.1 0.00 0.00 0.00 65 1016.3
20260506200554 18 255 9.7 19.3 0.00 0.00 0.00 65 1016.4
20260506200054 18 297 8.0 19.3 0.00 0.00 0.00 65 1016.5
20260506195554 18 245 8.0 19.3 0.00 0.00 0.00 64 1016.6
20260506195056 18 215 9.7 19.3 0.00 0.00 0.00 64 1016.6
20260506194623 18 205 6.4 22.5 0.00 0.00 0.00 64 1016.5
20260506194058 18 198 6.4 22.5 0.00 0.00 0.00 66 1016.6
20260506193555 18 189 11.3 22.5 0.00 0.00 0.00 66 1016.5
20260506193104 18 263 8.0 17.7 0.00 0.00 0.00 66 1016.7
20260506192555 18 191 4.8 16.1 0.00 0.00 0.00 66 1016.8
20260506192054 18 236 4.8 19.3 0.00 0.00 0.00 66 1016.9
20260506191553 18 280 8.0 19.3 0.00 0.00 0.00 67 1017.0
20260506191056 18 250 6.4 20.9 0.00 0.00 0.00 66 1016.9
20260506190555 18 184 9.7 20.9 0.00 0.00 0.00 67 1017.0
20260506190057 18 263 8.0 17.7 0.00 0.00 0.00 67 1017.1
20260506185555 18 277 6.4 24.1 0.00 0.00 0.00 68 1017.1
20260506185056 18 208 9.7 24.1 0.00 0.00 0.00 69 1017.1
20260506184554 18 271 11.3 24.1 0.00 0.00 0.00 69 1017.1
20260506184055 18 281 11.3 17.7 0.00 0.00 0.00 68 1017.1
20260506183555 18 273 8.0 17.7 0.00 0.00 0.00 68 1017.0
20260506183055 18 286 8.0 16.1 0.00 0.00 0.00 69 1017.1
20260506182555 18 178 8.0 17.7 0.00 0.00 0.00 68 1017.2
20260506182054 18 140 6.4 17.7 0.00 0.00 0.00 69 1017.1
20260506181555 18 302 4.8 14.5 0.00 0.00 0.00 69 1017.2
20260506181052 18 225 6.4 16.1 0.00 0.00 0.00 69 1017.2
20260506180553 18 303 8.0 17.7 0.00 0.00 0.00 71 1017.2
20260506180104 18 188 6.4 17.7 0.00 0.00 0.00 70 1017.1
20260506175552 18 199 6.4 17.7 0.00 0.00 0.00 69 1017.2
20260506175056 18 171 8.0 14.5 0.00 0.00 0.00 68 1017.3
20260506174557 18 130 3.2 11.3 0.00 0.00 0.00 66 1017.4
20260506174052 18 168 4.8 12.9 0.00 0.00 0.00 67 1017.4
20260506173553 18 102 3.2 12.9 0.00 0.00 0.00 68 1017.3
20260506173058 18 295 6.4 16.1 0.00 0.00 0.00 68 1017.2
20260506172551 18 265 6.4 16.1 0.00 0.00 0.00 67 1017.3
20260506172055 18 186 3.2 14.5 0.00 0.00 0.00 67 1017.3
20260506171601 18 309 1.6 9.7 0.00 0.00 0.00 67 1017.3
20260506171056 18 257 1.6 4.8 0.00 0.00 0.00 67 1017.3
20260506170552 17 87 1.6 6.4 0.00 0.00 0.00 68 1017.1
20260506170106 17 265 1.6 9.7 0.00 0.00 0.00 68 1017.1
20260506165552 17 0 3.2 9.7 0.00 0.00 0.00 68 1017.2
20260506165053 17 218 3.2 9.7 0.00 0.00 0.00 68 1017.2
20260506164607 17 0 1.6 9.7 0.00 0.00 0.00 69 1017.1
20260506164053 17 274 4.8 9.7 0.00 0.00 0.00 70 1017.1
20260506163552 17 226 3.2 9.7 0.00 0.00 0.00 70 1017.2
20260506163119 17 0 1.6 6.4 0.00 0.00 0.00 72 1017.1
20260506162553 17 59 1.6 8.0 0.00 0.00 0.00 72 1017.2
20260506162054 17 198 3.2 9.7 0.00 0.00 0.00 73 1017.4
20260506161616 17 175 1.6 9.7 0.00 0.00 0.00 72 1017.3
20260506161052 17 80 3.2 9.7 0.00 0.00 0.00 73 1017.3
20260506160555 17 92 3.2 9.7 0.00 0.00 0.00 73 1017.3
20260506160057 17 109 1.6 6.4 0.00 0.00 0.00 74 1017.3
20260506155556 16 89 1.6 8.0 0.00 0.00 0.00 75 1017.4
20260506155054 16 62 1.6 8.0 0.00 0.00 0.00 76 1017.4
20260506154619 16 55 1.6 9.7 0.00 0.00 0.00 77 1017.4
20260506154052 16 5 1.6 9.7 0.00 0.00 0.00 77 1017.3
20260506153553 16 85 1.6 9.7 0.00 0.00 0.00 78 1017.4
20260506153107 15 118 3.2 9.7 0.00 0.00 0.00 79 1017.4
20260506152553 15 83 0.0 11.3 0.00 0.00 0.00 81 1017.3
20260506152058 15 32 1.6 11.3 0.00 0.00 0.00 81 1017.3
20260506151558 15 0 4.8 11.3 0.00 0.00 0.00 81 1017.3
20260506151052 15 93 4.8 11.3 0.00 0.00 0.00 81 1017.2
20260506150555 15 57 1.6 8.0 0.00 0.00 0.00 82 1017.3
20260506150052 15 0 1.6 12.9 0.00 0.00 0.00 82 1017.3
20260506145554 15 31 3.2 12.9 0.00 0.00 0.00 82 1017.3
20260506145054 15 75 3.2 9.7 0.00 0.00 0.00 82 1017.3
20260506144553 15 59 3.2 8.0 0.00 0.00 0.00 82 1017.4
20260506144054 14 26 1.6 8.0 0.00 0.00 0.00 82 1017.3
20260506143555 14 352 1.6 8.0 0.00 0.00 0.00 83 1017.4
20260506143104 13 35 1.6 8.0 0.00 0.00 0.00 83 1017.4
20260506142556 13 21 0.0 6.4 0.00 0.00 0.00 84 1017.2
20260506142052 13 43 1.6 4.8 0.00 0.00 0.00 85 1017.2
20260506141554 13 0 0.0 4.8 0.00 0.00 0.00 85 1017.1
20260506141055 13 20 0.0 4.8 0.00 0.00 0.00 85 1017.1
20260506140555 12 0 0.0 3.2 0.00 0.00 0.00 85 1017.0
20260506140057 12 345 0.0 3.2 0.00 0.00 0.00 85 1017.0
20260506135552 12 0 0.0 1.6 0.00 0.00 0.00 86 1016.9
20260506135052 12 0 0.0 3.2 0.00 0.00 0.00 87 1016.9
20260506134555 12 0 0.0 3.2 0.00 0.00 0.00 87 1016.7
20260506134052 12 0 0.0 3.2 0.00 0.00 0.00 87 1016.8
20260506133552 11 0 0.0 1.6 0.00 0.00 0.00 88 1016.8
20260506133057 11 0 0.0 3.2 0.00 0.00 0.00 88 1016.7
20260506132551 11 0 0.0 3.2 0.00 0.00 0.00 88 1016.7
20260506132057 11 0 0.0 1.6 0.00 0.00 0.00 87 1016.7
20260506131557 11 0 0.0 3.2 0.00 0.00 0.00 87 1016.6
20260506131052 11 0 0.0 4.8 0.00 0.00 0.00 87 1016.6
20260506130553 11 0 0.0 4.8 0.00 0.00 0.00 88 1016.5
20260506130054 11 342 0.0 4.8 0.00 0.00 0.00 87 1016.5
20260506125552 11 331 0.0 1.6 0.00 0.00 0.00 87 1016.3
20260506125057 11 0 0.0 1.6 0.00 0.00 0.00 87 1016.3
20260506124553 11 0 0.0 0.0 0.00 0.00 0.00 87 1016.2
20260506124052 11 0 0.0 0.0 0.00 0.00 0.00 87 1016.2
20260506123553 11 0 0.0 0.0 0.00 0.00 0.00 87 1016.0
20260506123055 11 0 0.0 0.0 0.00 0.00 0.00 87 1016.1
20260506122553 11 0 0.0 0.0 0.00 0.00 0.00 87 1016.1
20260506122052 11 0 0.0 1.6 0.00 0.00 0.00 87 1016.1
20260506121553 11 0 0.0 3.2 0.00 0.00 0.00 87 1016.0
20260506121055 11 0 0.0 3.2 0.00 0.00 0.00 87 1016.0
20260506120555 11 332 0.0 3.2 0.00 0.00 0.00 87 1016.0
20260506120058 11 0 0.0 3.2 0.00 0.00 0.00 87 1016.0
20260506115552 11 0 0.0 3.2 0.00 0.00 0.00 87 1015.9
20260506115052 11 321 0.0 0.0 0.00 0.00 0.00 87 1015.9
20260506114605 11 0 0.0 1.6 0.00 0.00 0.00 87 1015.9
20260506114058 11 0 0.0 3.2 0.00 0.00 0.00 87 1016.0
20260506113552 11 0 0.0 3.2 0.00 0.00 0.00 87 1015.9
20260506113055 12 0 0.0 3.2 0.00 0.00 0.00 87 1015.9
20260506112556 12 0 0.0 1.6 0.00 0.00 0.00 87 1015.9
20260506112052 12 0 0.0 3.2 0.00 0.00 0.00 87 1015.8
20260506111555 12 0 0.0 4.8 0.00 0.00 0.00 87 1015.9
20260506111055 12 0 0.0 4.8 0.00 0.00 0.00 87 1015.8
20260506110555 12 0 1.6 4.8 0.00 0.00 0.00 87 1015.8
20260506110104 12 325 0.0 1.6 0.00 0.00 0.00 87 1015.9
20260506105558 12 0 0.0 3.2 0.00 0.00 0.00 87 1015.8
20260506105054 12 0 0.0 3.2 0.00 0.00 0.00 87 1015.9
20260506104553 12 0 0.0 3.2 0.00 0.00 0.00 87 1016.0
20260506104054 12 0 0.0 0.0 0.00 0.00 0.00 87 1016.0
20260506103554 12 0 0.0 0.0 0.00 0.00 0.00 87 1015.9
20260506103059 12 0 0.0 0.0 0.00 0.00 0.00 87 1015.9
20260506102555 12 0 0.0 0.0 0.00 0.00 0.00 87 1016.0
20260506102055 12 0 0.0 0.0 0.00 0.00 0.00 87 1015.9
20260506101603 12 0 0.0 4.8 0.00 0.00 0.00 87 1016.0
20260506101055 12 0 1.6 4.8 0.00 0.00 0.00 87 1015.9
20260506100555 12 0 0.0 3.2 0.00 0.00 0.00 87 1015.9
20260506100055 12 0 0.0 3.2 0.00 0.00 0.00 87 1015.9
20260506095559 12 0 0.0 3.2 0.00 0.00 0.00 87 1016.0
20260506095055 12 0 0.0 6.4 0.00 0.00 0.00 87 1016.1
20260506094622 12 0 1.6 6.4 0.00 0.00 0.00 87 1016.0
20260506094054 12 351 0.0 4.8 0.00 0.00 0.00 87 1016.0
20260506093556 12 0 0.0 4.8 0.00 0.00 0.00 87 1016.0
20260506093058 12 0 0.0 4.8 0.00 0.00 0.00 87 1016.0
20260506092555 12 321 0.0 3.2 0.00 0.00 0.00 87 1016.0
20260506092055 12 0 0.0 3.2 0.00 0.00 0.00 87 1015.9
20260506091556 12 0 0.0 3.2 0.00 0.00 0.00 87 1016.0
20260506091054 12 0 0.0 1.6 0.00 0.00 0.00 87 1016.1
20260506090554 12 0 0.0 1.6 0.00 0.00 0.00 87 1016.1
20260506085555 12 0 0.0 4.8 0.00 0.00 0.00 87 1016.3
20260506085055 12 0 1.6 6.4 0.00 0.00 0.00 87 1016.2
20260506084554 12 349 1.6 6.4 0.00 0.00 0.00 87 1016.3
20260506084058 12 0 3.2 6.4 0.00 0.00 0.00 87 1016.3
20260506083555 12 338 3.2 6.4 0.00 0.00 0.00 86 1016.4
20260506083103 12 343 3.2 4.8 0.00 0.00 0.00 86 1016.2
20260506082558 12 331 0.0 1.6 0.00 0.00 0.00 86 1016.3
20260506082055 12 0 0.0 1.6 0.00 0.00 0.00 86 1016.3
20260506081555 12 0 0.0 3.2 0.00 0.00 0.00 86 1016.4
20260506081054 12 0 0.0 4.8 0.00 0.00 0.00 86 1016.4
20260506080556 12 0 0.0 6.4 0.00 0.00 0.00 86 1016.5
20260506073058 12 323 3.2 6.4 0.00 0.00 0.00 85 1016.5
20260506072555 12 339 0.0 3.2 0.00 0.00 0.00 85 1016.5
20260506072052 12 0 0.0 0.0 0.00 0.00 0.00 85 1016.5
20260506071557 12 0 0.0 0.0 0.00 0.00 0.00 85 1016.5
20260506071056 12 0 0.0 0.0 0.00 0.00 0.00 85 1016.5
20260506070552 12 0 0.0 0.0 0.00 0.00 0.00 85 1016.4
20260506070104 12 0 0.0 0.0 0.00 0.00 0.00 84 1016.3
20260506062052 12 338 1.6 6.4 0.00 0.00 0.00 84 1015.9
20260506061600 12 345 3.2 6.4 0.00 0.00 0.00 84 1016.0
20260506061053 12 0 0.0 4.8 0.00 0.00 0.00 83 1016.0
20260506060553 12 352 1.6 4.8 0.00 0.00 0.00 83 1015.9
20260506060104 12 0 0.0 4.8 0.00 0.00 0.00 83 1015.9
20260506051052 13 0 0.0 3.2 0.00 0.00 0.00 80 1015.4
20260506050552 13 346 0.0 3.2 0.00 0.00 0.00 80 1015.5
20260506045052 13 352 0.0 3.2 0.00 0.00 0.00 79 1015.3
20260506044555 13 0 0.0 3.2 0.00 0.00 0.00 79 1015.2
20260506044052 13 352 0.0 3.2 0.00 0.00 0.00 79 1015.1
20260506043552 14 0 0.0 3.2 0.00 0.00 0.00 78 1015.0
20260506043053 14 0 0.0 3.2 0.00 0.00 0.00 78 1015.0
20260506042552 14 339 0.0 3.2 0.00 0.00 0.00 77 1014.9
20260506042055 14 0 0.0 3.2 0.00 0.00 0.00 76 1014.9
20260506041556 14 0 0.0 3.2 0.00 0.00 0.00 76 1014.8
20260506041052 14 0 0.0 6.4 0.00 0.00 0.00 76 1014.8
20260506040552 14 0 0.0 6.4 0.00 0.00 0.00 76 1014.6
20260506040101 14 0 1.6 6.4 0.00 0.00 0.00 77 1014.6
20260506035551 14 273 1.6 6.4 0.00 0.00 0.00 76 1014.6
20260506035053 14 0 1.6 6.4 0.00 0.00 0.00 76 1014.6
20260506034606 15 266 1.6 6.4 0.00 0.00 0.00 76 1014.5
20260506034052 15 279 0.0 6.4 0.00 0.00 0.00 76 1014.5
20260506033552 15 279 0.0 3.2 0.00 0.00 0.00 76 1014.4
20260506033054 15 285 0.0 9.7 0.00 0.00 0.00 76 1014.4
20260506032552 15 287 1.6 11.3 0.00 0.00 0.00 76 1014.4
20260506032058 15 275 1.6 11.3 0.00 0.00 0.00 76 1014.2
20260506031600 15 274 6.4 12.9 0.00 0.00 0.00 76 1014.2
20260506031057 15 0 3.2 14.5 0.00 0.00 0.00 75 1013.9
20260506030551 15 273 8.0 14.5 0.00 0.00 0.00 75 1013.9
20260506030056 15 302 3.2 14.5 0.00 0.00 0.00 76 1014.0
20260506025552 15 307 4.8 14.5 0.00 0.00 0.00 76 1013.9
20260506025052 15 293 4.8 16.1 0.00 0.00 0.00 75 1013.9
20260506024554 15 276 4.8 16.1 0.00 0.00 0.00 75 1013.7
20260506024053 15 213 8.0 17.7 0.00 0.00 0.00 75 1013.8
20260506023553 15 196 3.2 17.7 0.00 0.00 0.00 75 1013.7
20260506023056 15 264 8.0 16.1 0.00 0.00 0.00 74 1013.6
20260506022552 15 267 3.2 19.3 0.00 0.00 0.00 75 1013.5
20260506022052 15 294 6.4 19.3 0.00 0.00 0.00 75 1013.4
20260506021557 15 263 9.7 19.3 0.00 0.00 0.00 74 1013.3
20260506021055 15 288 6.4 16.1 0.00 0.00 0.00 73 1013.3
20260506020554 15 195 6.4 14.5 0.00 0.00 0.00 74 1013.2
20260506015555 15 292 11.3 19.3 0.00 0.00 0.00 72 1013.2
20260506015055 15 228 6.4 17.7 0.00 0.00 0.00 73 1013.2
20260506014555 15 218 8.0 17.7 0.00 0.00 0.00 73 1013.3
20260506014053 15 211 6.4 17.7 0.00 0.00 0.00 73 1013.3
20260506013555 15 181 3.2 17.7 0.00 0.00 0.00 73 1013.3
20260506013057 15 286 6.4 17.7 0.00 0.00 0.00 73 1013.3
20260506012552 15 266 9.7 16.1 0.00 0.00 0.00 73 1013.3
20260506012053 15 225 6.4 14.5 0.00 0.00 0.00 74 1013.3
20260506011601 15 207 4.8 17.7 0.00 0.00 0.00 74 1013.2
20260506011057 15 265 9.7 17.7 0.00 0.00 0.00 74 1013.2
20260506010558 15 251 8.0 19.3 0.00 0.00 0.00 74 1013.3
20260506010058 15 267 8.0 19.3 0.00 0.00 0.00 74 1013.2
20260506005552 15 231 9.7 19.3 0.00 0.00 0.00 74 1013.2
20260506005052 15 212 11.3 19.3 0.00 0.00 0.00 74 1013.1
20260506004559 15 281 8.0 19.3 0.00 0.00 0.00 74 1013.2
20260506004055 15 254 6.4 19.3 0.00 0.00 0.00 74 1013.2
20260506003554 15 300 11.3 22.5 0.00 0.00 0.00 73 1013.2
20260506003056 15 229 11.3 22.5 0.00 0.00 0.00 73 1013.2
20260506002556 15 254 12.9 20.9 0.00 0.00 0.00 72 1013.1
20260506002054 15 319 12.9 20.9 0.00 0.00 0.00 71 1013.1
20260506001554 15 287 9.7 20.9 0.00 0.00 0.00 71 1013.1
20260506001053 15 269 9.7 25.7 0.00 0.00 0.00 71 1013.0
20260506000552 15 243 9.7 25.7 0.00 0.00 0.00 71 1013.0
20260506000055 16 244 9.7 20.9 0.00 0.00 0.00 71 1013.1
20260505235556 16 272 9.7 20.9 0.00 0.00 0.00 71 1013.1
20260505235053 15 214 6.4 22.5 0.00 0.00 0.00 71 1013.2
20260505234600 15 251 12.9 24.1 0.00 0.00 0.00 71 1013.2
20260505234052 16 243 12.9 27.4 0.00 0.00 0.00 71 1013.2
20260505233552 16 270 11.3 27.4 0.00 0.00 0.00 72 1013.2
20260505233111 16 284 14.5 27.4 0.00 0.00 0.00 71 1013.1
20260505232555 16 163 12.9 24.1 0.00 0.00 0.00 72 1013.1
20260505232055 15 271 11.3 25.7 0.00 0.00 0.00 74 1013.1
20260505231557 15 271 12.9 25.7 0.00 0.00 0.00 74 1013.1
20260505231059 15 235 11.3 24.1 0.00 0.00 0.00 75 1013.2
20260505230552 15 241 14.5 24.1 0.00 0.00 0.00 75 1013.2
20260505225553 15 247 12.9 29.0 0.00 0.00 0.00 76 1013.3
20260505225053 15 305 14.5 24.1 0.00 0.00 0.00 76 1013.4
20260505224557 15 254 11.3 25.7 0.00 0.00 0.00 75 1013.5
20260505224053 15 262 14.5 29.0 0.00 0.00 0.00 74 1013.5
20260505223552 15 271 14.5 29.0 0.00 0.00 0.00 74 1013.4
20260505223101 15 263 11.3 22.5 0.00 0.00 0.00 75 1013.4
20260505222552 15 209 11.3 32.2 0.00 0.00 0.00 73 1013.4
20260505222052 16 255 9.7 32.2 0.00 0.00 0.00 73 1013.4
20260505221558 16 203 9.7 32.2 0.00 0.00 0.00 73 1013.5
20260505221051 16 239 12.9 32.2 0.00 0.00 0.00 71 1013.5
20260505220559 16 246 12.9 32.2 0.00 0.00 0.00 70 1013.5
20260505220056 16 269 14.5 25.7 0.00 0.00 0.00 69 1013.6
20260505215555 16 276 9.7 25.7 0.00 0.00 0.00 70 1013.6
20260505215055 16 259 12.9 25.7 0.00 0.00 0.00 69 1013.5
20260505214559 16 256 11.3 24.1 0.00 0.00 0.00 69 1013.6
20260505214055 16 278 11.3 24.1 0.00 0.00 0.00 69 1013.6
20260505213555 16 236 12.9 27.4 0.00 0.00 0.00 66 1013.7
20260505213056 16 167 12.9 27.4 0.00 0.00 0.00 65 1013.6
20260505212552 16 234 14.5 27.4 0.00 0.00 0.00 64 1013.5
20260505212055 16 284 11.3 22.5 0.00 0.00 0.00 63 1013.6
20260505211609 16 250 9.7 22.5 0.00 0.00 0.00 63 1013.6
20260505211056 16 205 8.0 20.9 0.00 0.00 0.00 64 1013.7
20260505210555 16 283 9.7 20.9 0.00 0.00 0.00 63 1013.7
20260505210059 16 254 6.4 22.5 0.00 0.00 0.00 62 1013.8
20260505205551 16 279 16.1 24.1 0.00 0.00 0.00 62 1013.8
20260505205055 16 306 11.3 25.7 0.00 0.00 0.00 64 1013.7
20260505204600 16 232 11.3 25.7 0.00 0.00 0.00 64 1013.6
20260505204052 16 246 11.3 25.7 0.00 0.00 0.00 65 1013.6
20260505203557 16 242 16.1 29.0 0.00 0.00 0.00 64 1013.7
20260505203058 16 242 11.3 29.0 0.00 0.00 0.00 66 1013.7
20260505202552 16 296 14.5 29.0 0.00 0.00 0.00 66 1013.6
20260505202056 16 239 11.3 29.0 0.00 0.00 0.00 63 1013.6